| time (UTC) | temp F | wind direction | speed knots | gust knots | rain 1hr in | rain 24hr in | rain mn in | humidity % | barometer mb |
| 20260506185136 | 65 | 143 | 2.6 | 5.2 | 0.00 | 0.00 | 0.00 | 73 | 1009.4 |
| 20260506185050 | 65 | 95 | 3.5 | 5.2 | 0.00 | 0.00 | 0.00 | 73 | 1012.9 |
| 20260506184636 | 65 | 143 | 2.6 | 5.2 | 0.00 | 0.00 | 0.00 | 73 | 1009.4 |
| 20260506184550 | 65 | 117 | 4.3 | 5.2 | 0.00 | 0.00 | 0.00 | 73 | 1012.9 |
| 20260506184136 | 66 | 104 | 5.2 | 6.1 | 0.00 | 0.00 | 0.00 | 73 | 1009.3 |
| 20260506184054 | 66 | 112 | 3.5 | 7.0 | 0.00 | 0.00 | 0.00 | 73 | 1012.9 |
| 20260506183636 | 66 | 120 | 5.2 | 5.2 | 0.00 | 0.00 | 0.00 | 72 | 1009.5 |
| 20260506183552 | 66 | 143 | 3.5 | 5.2 | 0.00 | 0.00 | 0.00 | 72 | 1012.9 |
| 20260506183136 | 66 | 81 | 3.5 | 6.1 | 0.00 | 0.00 | 0.00 | 72 | 1009.3 |
| 20260506183053 | 66 | 106 | 3.5 | 5.2 | 0.00 | 0.00 | 0.00 | 72 | 1012.9 |
| 20260506182636 | 66 | 81 | 1.7 | 6.1 | 0.00 | 0.00 | 0.00 | 72 | 1009.4 |
| 20260506182552 | 66 | 149 | 1.7 | 4.3 | 0.00 | 0.00 | 0.00 | 72 | 1012.9 |
| 20260506182136 | 66 | 294 | 0.0 | 1.7 | 0.00 | 0.00 | 0.00 | 76 | 1009.2 |
| 20260506182055 | 66 | 141 | 1.7 | 3.5 | 0.00 | 0.00 | 0.00 | 73 | 1012.5 |
| 20260506181636 | 66 | 202 | 1.7 | 1.7 | 0.00 | 0.00 | 0.00 | 76 | 1009.2 |
| 20260506181556 | 66 | 240 | 1.7 | 2.6 | 0.00 | 0.00 | 0.00 | 76 | 1012.5 |
| 20260506181136 | 66 | 212 | 1.7 | 3.5 | 0.00 | 0.00 | 0.00 | 75 | 1009.1 |
| 20260506181051 | 66 | 226 | 2.6 | 3.5 | 0.00 | 0.00 | 0.00 | 75 | 1012.5 |
| 20260506180636 | 66 | 269 | 0.0 | 2.6 | 0.00 | 0.00 | 0.00 | 76 | 1009.2 |
| 20260506180552 | 66 | 257 | 1.7 | 2.6 | 0.00 | 0.00 | 0.00 | 75 | 1012.5 |
| 20260506180136 | 66 | 254 | 2.6 | 5.2 | 0.00 | 0.00 | 0.00 | 75 | 1009.2 |
| 20260506180052 | 66 | 240 | 2.6 | 5.2 | 0.00 | 0.00 | 0.00 | 75 | 1012.5 |
| 20260506175636 | 66 | 254 | 2.6 | 5.2 | 0.00 | 0.00 | 0.00 | 75 | 1009.0 |
| 20260506175552 | 66 | 238 | 0.9 | 4.3 | 0.00 | 0.00 | 0.00 | 75 | 1012.5 |
| 20260506175136 | 66 | 260 | 2.6 | 7.8 | 0.00 | 0.00 | 0.00 | 75 | 1008.9 |
| 20260506175053 | 66 | 250 | 1.7 | 7.8 | 0.00 | 0.00 | 0.00 | 75 | 1012.2 |
| 20260506174636 | 66 | 235 | 2.6 | 6.1 | 0.00 | 0.00 | 0.00 | 73 | 1009.1 |
| 20260506174554 | 66 | 237 | 2.6 | 5.2 | 0.00 | 0.00 | 0.00 | 74 | 1012.5 |
| 20260506174136 | 67 | 257 | 5.2 | 5.2 | 0.00 | 0.00 | 0.00 | 72 | 1008.9 |
| 20260506174053 | 67 | 268 | 3.5 | 7.8 | 0.00 | 0.00 | 0.00 | 73 | 1012.5 |
| 20260506173636 | 67 | 283 | 1.7 | 4.3 | 0.00 | 0.00 | 0.00 | 70 | 1009.1 |
| 20260506173552 | 67 | 267 | 2.6 | 5.2 | 0.00 | 0.00 | 0.00 | 72 | 1012.5 |
| 20260506173136 | 68 | 175 | 3.5 | 6.1 | 0.00 | 0.00 | 0.00 | 67 | 1008.9 |
| 20260506173054 | 68 | 271 | 3.5 | 3.5 | 0.00 | 0.00 | 0.00 | 68 | 1012.5 |
| 20260506172636 | 68 | 13 | 1.7 | 4.3 | 0.00 | 0.00 | 0.00 | 68 | 1009.0 |
| 20260506172552 | 68 | 119 | 2.6 | 4.3 | 0.00 | 0.00 | 0.00 | 65 | 1012.2 |
| 20260506172136 | 68 | 301 | 0.9 | 3.5 | 0.00 | 0.00 | 0.00 | 69 | 1009.0 |
| 20260506172052 | 68 | 310 | 2.6 | 4.3 | 0.00 | 0.00 | 0.00 | 68 | 1012.5 |
| 20260506171636 | 68 | 250 | 2.6 | 7.0 | 0.00 | 0.00 | 0.00 | 69 | 1008.7 |
| 20260506171552 | 68 | 240 | 1.7 | 3.5 | 0.00 | 0.00 | 0.00 | 69 | 1012.2 |
| 20260506171136 | 70 | 272 | 8.7 | 9.6 | 0.00 | 0.00 | 0.00 | 65 | 1008.8 |
| 20260506171054 | 69 | 265 | 5.2 | 7.0 | 0.00 | 0.00 | 0.00 | 68 | 1012.5 |
| 20260506170636 | 70 | 97 | 2.6 | 2.6 | 0.00 | 0.00 | 0.00 | 55 | 1008.9 |
| 20260506170554 | 70 | 275 | 7.8 | 9.6 | 0.00 | 0.00 | 0.00 | 65 | 1012.2 |
| 20260506170136 | 70 | 97 | 2.6 | 2.6 | 0.00 | 0.00 | 0.00 | 55 | 1008.9 |
| 20260506170053 | 70 | 120 | 2.6 | 2.6 | 0.00 | 0.00 | 0.00 | 55 | 1012.2 |
| 20260506165636 | 70 | 141 | 0.9 | 2.6 | 0.00 | 0.00 | 0.00 | 57 | 1008.7 |
| 20260506165553 | 70 | 101 | 0.9 | 3.5 | 0.00 | 0.00 | 0.00 | 56 | 1012.2 |
| 20260506165136 | 70 | 205 | 3.5 | 3.5 | 0.00 | 0.00 | 0.00 | 57 | 1008.9 |
| 20260506165053 | 70 | 175 | 1.7 | 3.5 | 0.00 | 0.00 | 0.00 | 57 | 1012.2 |
| 20260506164636 | 69 | 133 | 3.5 | 1.7 | 0.00 | 0.00 | 0.00 | 59 | 1008.9 |
| 20260506164553 | 69 | 154 | 0.0 | 3.5 | 0.00 | 0.00 | 0.00 | 58 | 1012.2 |
| 20260506164136 | 70 | 273 | 2.6 | 3.5 | 0.00 | 0.00 | 0.00 | 60 | 1008.9 |
| 20260506164052 | 70 | 188 | 2.6 | 4.3 | 0.00 | 0.00 | 0.00 | 58 | 1012.2 |
| 20260506163636 | 69 | 125 | 1.7 | 3.5 | 0.00 | 0.00 | 0.00 | 60 | 1008.8 |
| 20260506163552 | 69 | 301 | 3.5 | 3.5 | 0.00 | 0.00 | 0.00 | 60 | 1012.2 |
| 20260506163136 | 68 | 123 | 2.6 | 3.5 | 0.00 | 0.00 | 0.00 | 60 | 1008.7 |
| 20260506163054 | 68 | 89 | 1.7 | 4.3 | 0.00 | 0.00 | 0.00 | 60 | 1012.2 |
| 20260506162636 | 67 | 123 | 2.6 | 3.5 | 0.00 | 0.00 | 0.00 | 61 | 1008.8 |
| 20260506162553 | 67 | 127 | 2.6 | 2.6 | 0.00 | 0.00 | 0.00 | 62 | 1012.2 |
| 20260506162053 | 67 | 97 | 2.6 | 3.5 | 0.00 | 0.00 | 0.00 | 62 | 1012.2 |
| 20260506161554 | 67 | 95 | 2.6 | 7.0 | 0.00 | 0.00 | 0.00 | 63 | 1012.2 |
| 20260506161241 | 67 | 37 | 1.7 | 6.1 | 0.00 | 0.00 | 0.00 | 63 | 1008.7 |
| 20260506161053 | 67 | 109 | 3.5 | 6.1 | 0.00 | 0.00 | 0.00 | 63 | 1012.2 |
| 20260506160741 | 67 | 116 | 0.9 | 3.5 | 0.00 | 0.00 | 0.00 | 62 | 1008.8 |
| 20260506160552 | 67 | 81 | 0.9 | 5.2 | 0.00 | 0.00 | 0.00 | 62 | 1012.2 |
| 20260506160241 | 67 | 120 | 3.5 | 6.1 | 0.00 | 0.00 | 0.00 | 62 | 1008.8 |
| 20260506160053 | 67 | 325 | 0.9 | 3.5 | 0.00 | 0.00 | 0.00 | 62 | 1012.2 |
| 20260506155741 | 67 | 71 | 2.6 | 6.1 | 0.00 | 0.00 | 0.00 | 62 | 1008.6 |
| 20260506155553 | 67 | 85 | 0.9 | 4.3 | 0.00 | 0.00 | 0.00 | 62 | 1012.2 |
| 20260506155241 | 67 | 71 | 2.6 | 5.2 | 0.00 | 0.00 | 0.00 | 62 | 1008.7 |
| 20260506155053 | 67 | 87 | 2.6 | 5.2 | 0.00 | 0.00 | 0.00 | 62 | 1011.9 |
| 20260506154741 | 67 | 70 | 2.6 | 7.0 | 0.00 | 0.00 | 0.00 | 62 | 1008.8 |
| 20260506154552 | 67 | 41 | 2.6 | 4.3 | 0.00 | 0.00 | 0.00 | 63 | 1012.2 |
| 20260506154241 | 67 | 80 | 3.5 | 7.8 | 0.00 | 0.00 | 0.00 | 64 | 1008.8 |
| 20260506154052 | 67 | 86 | 4.3 | 7.0 | 0.00 | 0.00 | 0.00 | 64 | 1012.2 |
| 20260506153741 | 67 | 104 | 2.6 | 5.2 | 0.00 | 0.00 | 0.00 | 64 | 1008.7 |
| 20260506153553 | 67 | 103 | 3.5 | 4.3 | 0.00 | 0.00 | 0.00 | 64 | 1012.2 |
| 20260506153241 | 67 | 83 | 1.7 | 5.2 | 0.00 | 0.00 | 0.00 | 64 | 1008.8 |
| 20260506153055 | 67 | 53 | 2.6 | 4.3 | 0.00 | 0.00 | 0.00 | 64 | 1012.2 |
| 20260506152741 | 67 | 83 | 0.0 | 5.2 | 0.00 | 0.00 | 0.00 | 64 | 1008.7 |
| 20260506152553 | 67 | 102 | 4.3 | 5.2 | 0.00 | 0.00 | 0.00 | 65 | 1012.2 |
| 20260506152241 | 67 | 84 | 0.0 | 6.1 | 0.00 | 0.00 | 0.00 | 65 | 1008.7 |
| 20260506152054 | 67 | 118 | 2.6 | 5.2 | 0.00 | 0.00 | 0.00 | 64 | 1011.9 |
| 20260506151741 | 67 | 101 | 6.1 | 6.1 | 0.00 | 0.00 | 0.00 | 65 | 1008.6 |
| 20260506151552 | 67 | 110 | 0.9 | 4.3 | 0.00 | 0.00 | 0.00 | 65 | 1012.2 |
| 20260506151241 | 67 | 101 | 2.6 | 6.1 | 0.00 | 0.00 | 0.00 | 65 | 1008.8 |
| 20260506151053 | 67 | 58 | 2.6 | 7.0 | 0.00 | 0.00 | 0.00 | 65 | 1012.2 |
| 20260506150741 | 66 | 89 | 2.6 | 7.8 | 0.00 | 0.00 | 0.00 | 65 | 1008.8 |
| 20260506150554 | 66 | 91 | 3.5 | 5.2 | 0.00 | 0.00 | 0.00 | 65 | 1012.2 |
| 20260506150241 | 67 | 89 | 2.6 | 7.8 | 0.00 | 0.00 | 0.00 | 65 | 1008.8 |
| 20260506150052 | 67 | 79 | 3.5 | 7.0 | 0.00 | 0.00 | 0.00 | 65 | 1012.2 |
| 20260506145741 | 67 | 123 | 4.3 | 5.2 | 0.00 | 0.00 | 0.00 | 66 | 1008.8 |
| 20260506145555 | 67 | 84 | 4.3 | 6.1 | 0.00 | 0.00 | 0.00 | 65 | 1012.2 |
| 20260506145241 | 67 | 123 | 5.2 | 5.2 | 0.00 | 0.00 | 0.00 | 66 | 1009.1 |
| 20260506145054 | 67 | 119 | 0.9 | 8.7 | 0.00 | 0.00 | 0.00 | 67 | 1012.2 |
| 20260506144741 | 67 | 91 | 4.3 | 5.2 | 0.00 | 0.00 | 0.00 | 69 | 1008.9 |
| 20260506144553 | 67 | 63 | 3.5 | 5.2 | 0.00 | 0.00 | 0.00 | 70 | 1012.2 |
| 20260506144241 | 67 | 86 | 4.3 | 5.2 | 0.00 | 0.00 | 0.00 | 71 | 1008.8 |
| 20260506144051 | 67 | 213 | 1.7 | 5.2 | 0.00 | 0.00 | 0.00 | 71 | 1012.2 |
| 20260506143741 | 67 | 34 | 1.7 | 5.2 | 0.00 | 0.00 | 0.00 | 71 | 1009.1 |
| 20260506143553 | 67 | 61 | 2.6 | 8.7 | 0.00 | 0.00 | 0.00 | 71 | 1012.2 |
| 20260506143241 | 66 | 10 | 1.7 | 7.8 | 0.00 | 0.00 | 0.00 | 72 | 1008.9 |
| 20260506143052 | 66 | 77 | 4.3 | 5.2 | 0.00 | 0.00 | 0.00 | 72 | 1012.2 |
| 20260506142741 | 66 | 52 | 5.2 | 11.3 | 0.00 | 0.00 | 0.00 | 71 | 1009.0 |
| 20260506142552 | 66 | 59 | 6.1 | 7.8 | 0.00 | 0.00 | 0.00 | 72 | 1012.2 |
| 20260506142241 | 67 | 38 | 3.5 | 7.0 | 0.00 | 0.00 | 0.00 | 71 | 1008.9 |
| 20260506142054 | 67 | 77 | 6.1 | 11.3 | 0.00 | 0.00 | 0.00 | 71 | 1012.5 |
| 20260506141740 | 67 | 73 | 3.5 | 6.1 | 0.00 | 0.00 | 0.00 | 71 | 1009.2 |
| 20260506141552 | 67 | 119 | 3.5 | 7.8 | 0.00 | 0.00 | 0.00 | 70 | 1012.5 |
| 20260506141241 | 67 | 51 | 2.6 | 7.0 | 0.00 | 0.00 | 0.00 | 70 | 1009.2 |
| 20260506141053 | 66 | 33 | 3.5 | 5.2 | 0.00 | 0.00 | 0.00 | 70 | 1012.9 |
| 20260506140741 | 67 | 35 | 3.5 | 6.1 | 0.00 | 0.00 | 0.00 | 68 | 1009.3 |
| 20260506140552 | 67 | 84 | 3.5 | 7.8 | 0.00 | 0.00 | 0.00 | 68 | 1012.5 |
| 20260506140240 | 67 | 109 | 3.5 | 3.5 | 0.00 | 0.00 | 0.00 | 66 | 1009.2 |
| 20260506140053 | 67 | 69 | 7.0 | 7.8 | 0.00 | 0.00 | 0.00 | 67 | 1012.9 |
| 20260506135741 | 68 | 109 | 3.5 | 3.5 | 0.00 | 0.00 | 0.00 | 66 | 1009.3 |
| 20260506135554 | 68 | 151 | 0.9 | 3.5 | 0.00 | 0.00 | 0.00 | 65 | 1012.9 |
| 20260506135241 | 68 | 260 | 3.5 | 4.3 | 0.00 | 0.00 | 0.00 | 64 | 1009.5 |
| 20260506135053 | 68 | 46 | 2.6 | 4.3 | 0.00 | 0.00 | 0.00 | 64 | 1012.9 |
| 20260506134741 | 66 | 194 | 1.7 | 2.6 | 0.00 | 0.00 | 0.00 | 65 | 1009.6 |
| 20260506134552 | 67 | 199 | 0.9 | 2.6 | 0.00 | 0.00 | 0.00 | 65 | 1013.2 |
| 20260506134241 | 66 | 52 | 2.6 | 2.6 | 0.00 | 0.00 | 0.00 | 65 | 1009.4 |
| 20260506134050 | 66 | 300 | 0.9 | 5.2 | 0.00 | 0.00 | 0.00 | 65 | 1012.9 |
| 20260506133741 | 66 | 62 | 2.6 | 3.5 | 0.00 | 0.00 | 0.00 | 66 | 1009.5 |
| 20260506133554 | 67 | 100 | 2.6 | 5.2 | 0.00 | 0.00 | 0.00 | 65 | 1012.9 |
| 20260506133241 | 66 | 61 | 3.5 | 4.3 | 0.00 | 0.00 | 0.00 | 66 | 1009.5 |
| 20260506133052 | 66 | 33 | 1.7 | 3.5 | 0.00 | 0.00 | 0.00 | 65 | 1012.9 |
| 20260506132741 | 66 | 61 | 3.5 | 4.3 | 0.00 | 0.00 | 0.00 | 65 | 1009.5 |
| 20260506132554 | 67 | 62 | 2.6 | 5.2 | 0.00 | 0.00 | 0.00 | 65 | 1012.9 |
| 20260506132241 | 66 | 120 | 3.5 | 5.2 | 0.00 | 0.00 | 0.00 | 66 | 1009.5 |
| 20260506132053 | 66 | 23 | 5.2 | 5.2 | 0.00 | 0.00 | 0.00 | 67 | 1012.9 |
| 20260506131741 | 67 | 26 | 7.0 | 9.6 | 0.00 | 0.00 | 0.00 | 63 | 1009.4 |
| 20260506131553 | 67 | 60 | 6.1 | 9.6 | 0.00 | 0.00 | 0.00 | 66 | 1012.9 |
| 20260506131241 | 68 | 346 | 0.0 | 2.6 | 0.00 | 0.00 | 0.00 | 64 | 1009.4 |
| 20260506131053 | 68 | 18 | 7.0 | 9.6 | 0.00 | 0.00 | 0.00 | 62 | 1012.9 |
| 20260506130741 | 68 | 58 | 4.3 | 4.3 | 0.00 | 0.00 | 0.00 | 64 | 1009.5 |
| 20260506130553 | 68 | 105 | 1.7 | 7.0 | 0.00 | 0.00 | 0.00 | 63 | 1012.9 |
| 20260506130241 | 68 | 253 | 3.5 | 4.3 | 0.00 | 0.00 | 0.00 | 64 | 1009.3 |
| 20260506130055 | 68 | 181 | 0.9 | 4.3 | 0.00 | 0.00 | 0.00 | 65 | 1012.9 |
| 20260506125741 | 68 | 253 | 4.3 | 4.3 | 0.00 | 0.00 | 0.00 | 69 | 1009.4 |
| 20260506125554 | 67 | 279 | 1.7 | 5.2 | 0.00 | 0.00 | 0.00 | 69 | 1012.9 |
| 20260506125241 | 68 | 214 | 4.3 | 7.8 | 0.00 | 0.00 | 0.00 | 68 | 1009.5 |
| 20260506125053 | 68 | 214 | 5.2 | 5.2 | 0.00 | 0.00 | 0.00 | 68 | 1012.9 |
| 20260506124741 | 68 | 211 | 4.3 | 8.7 | 0.00 | 0.00 | 0.00 | 68 | 1009.6 |
| 20260506124552 | 68 | 215 | 6.1 | 7.8 | 0.00 | 0.00 | 0.00 | 68 | 1012.9 |
| 20260506124241 | 68 | 211 | 2.6 | 8.7 | 0.00 | 0.00 | 0.00 | 68 | 1009.4 |
| 20260506124053 | 68 | 170 | 6.1 | 8.7 | 0.00 | 0.00 | 0.00 | 68 | 1012.9 |
| 20260506123741 | 68 | 207 | 2.6 | 11.3 | 0.00 | 0.00 | 0.00 | 69 | 1009.4 |
| 20260506123553 | 68 | 157 | 2.6 | 9.6 | 0.00 | 0.00 | 0.00 | 68 | 1012.9 |
| 20260506123241 | 68 | 212 | 6.1 | 7.8 | 0.00 | 0.00 | 0.00 | 69 | 1009.3 |
| 20260506123053 | 68 | 217 | 6.1 | 7.8 | 0.00 | 0.00 | 0.00 | 69 | 1012.5 |
| 20260506122741 | 69 | 212 | 3.5 | 7.8 | 0.00 | 0.00 | 0.00 | 69 | 1009.1 |
| 20260506122552 | 68 | 201 | 3.5 | 10.4 | 0.00 | 0.00 | 0.00 | 68 | 1012.9 |
| 20260506122241 | 69 | 184 | 3.5 | 10.4 | 0.00 | 0.00 | 0.00 | 67 | 1009.2 |
| 20260506122054 | 69 | 255 | 4.3 | 7.8 | 0.00 | 0.00 | 0.00 | 67 | 1012.9 |
| 20260506121741 | 70 | 218 | 0.0 | 8.7 | 0.00 | 0.00 | 0.00 | 65 | 1009.2 |
| 20260506121552 | 69 | 170 | 0.9 | 3.5 | 0.00 | 0.00 | 0.00 | 64 | 1012.5 |
| 20260506121241 | 70 | 86 | 3.5 | 5.2 | 0.00 | 0.00 | 0.00 | 59 | 1009.0 |
| 20260506121052 | 69 | 259 | 0.0 | 7.0 | 0.00 | 0.00 | 0.00 | 61 | 1012.5 |
| 20260506120741 | 70 | 18 | 1.7 | 2.6 | 0.00 | 0.00 | 0.00 | 55 | 1009.0 |
| 20260506120554 | 70 | 97 | 7.0 | 8.7 | 0.00 | 0.00 | 0.00 | 58 | 1012.5 |
| 20260506120241 | 69 | 18 | 1.7 | 2.6 | 0.00 | 0.00 | 0.00 | 55 | 1009.0 |
| 20260506120053 | 69 | 73 | 3.5 | 6.1 | 0.00 | 0.00 | 0.00 | 56 | 1012.5 |
| 20260506115741 | 70 | 29 | 4.3 | 9.6 | 0.00 | 0.00 | 0.00 | 55 | 1009.2 |
| 20260506115554 | 70 | 56 | 5.2 | 11.3 | 0.00 | 0.00 | 0.00 | 55 | 1012.2 |
| 20260506115241 | 69 | 6 | 0.9 | 9.6 | 0.00 | 0.00 | 0.00 | 57 | 1008.8 |
| 20260506115054 | 69 | 303 | 2.6 | 7.8 | 0.00 | 0.00 | 0.00 | 56 | 1012.5 |
| 20260506114741 | 69 | 36 | 2.6 | 10.4 | 0.00 | 0.00 | 0.00 | 58 | 1008.9 |
| 20260506114552 | 69 | 359 | 3.5 | 8.7 | 0.00 | 0.00 | 0.00 | 57 | 1012.2 |
| 20260506114241 | 69 | 36 | 2.6 | 10.4 | 0.00 | 0.00 | 0.00 | 58 | 1008.9 |
| 20260506114052 | 69 | 13 | 2.6 | 9.6 | 0.00 | 0.00 | 0.00 | 58 | 1012.5 |
| 20260506113741 | 69 | 71 | 4.3 | 11.3 | 0.00 | 0.00 | 0.00 | 57 | 1008.9 |
| 20260506113555 | 69 | 12 | 5.2 | 13.0 | 0.00 | 0.00 | 0.00 | 58 | 1012.5 |
| 20260506113241 | 69 | 71 | 3.5 | 11.3 | 0.00 | 0.00 | 0.00 | 57 | 1009.2 |
| 20260506113053 | 70 | 85 | 7.8 | 9.6 | 0.00 | 0.00 | 0.00 | 56 | 1012.5 |
| 20260506112741 | 69 | 40 | 7.0 | 10.4 | 0.00 | 0.00 | 0.00 | 59 | 1009.1 |
| 20260506112552 | 69 | 63 | 4.3 | 5.2 | 0.00 | 0.00 | 0.00 | 58 | 1012.5 |
| 20260506112241 | 69 | 40 | 7.0 | 10.4 | 0.00 | 0.00 | 0.00 | 59 | 1009.2 |
| 20260506112053 | 69 | 51 | 7.8 | 9.6 | 0.00 | 0.00 | 0.00 | 58 | 1012.5 |
| 20260506111741 | 69 | 53 | 4.3 | 13.0 | 0.00 | 0.00 | 0.00 | 60 | 1009.2 |
| 20260506111553 | 69 | 60 | 4.3 | 8.7 | 0.00 | 0.00 | 0.00 | 59 | 1012.5 |
| 20260506111241 | 69 | 53 | 4.3 | 13.0 | 0.00 | 0.00 | 0.00 | 60 | 1009.4 |
| 20260506111053 | 69 | 48 | 7.8 | 9.6 | 0.00 | 0.00 | 0.00 | 59 | 1012.5 |
| 20260506110741 | 70 | 27 | 3.5 | 10.4 | 0.00 | 0.00 | 0.00 | 58 | 1009.2 |
| 20260506110552 | 70 | 7 | 3.5 | 10.4 | 0.00 | 0.00 | 0.00 | 59 | 1012.9 |
| 20260506110241 | 70 | 27 | 3.5 | 10.4 | 0.00 | 0.00 | 0.00 | 58 | 1009.3 |
| 20260506110052 | 70 | 28 | 6.1 | 7.8 | 0.00 | 0.00 | 0.00 | 57 | 1012.9 |
| 20260506105741 | 69 | 20 | 8.7 | 9.6 | 0.00 | 0.00 | 0.00 | 59 | 1009.4 |
| 20260506105553 | 69 | 50 | 7.8 | 12.2 | 0.00 | 0.00 | 0.00 | 58 | 1012.9 |
| 20260506105241 | 69 | 58 | 3.5 | 8.7 | 0.00 | 0.00 | 0.00 | 59 | 1009.2 |
| 20260506105053 | 69 | 16 | 6.1 | 12.2 | 0.00 | 0.00 | 0.00 | 56 | 1012.9 |
| 20260506104741 | 69 | 86 | 5.2 | 6.1 | 0.00 | 0.00 | 0.00 | 55 | 1009.3 |
| 20260506104554 | 69 | 83 | 5.2 | 8.7 | 0.00 | 0.00 | 0.00 | 58 | 1012.9 |
| 20260506104241 | 69 | 57 | 4.3 | 7.8 | 0.00 | 0.00 | 0.00 | 55 | 1009.3 |
| 20260506104055 | 69 | 71 | 4.3 | 5.2 | 0.00 | 0.00 | 0.00 | 55 | 1012.9 |
| 20260506103741 | 69 | 41 | 3.5 | 7.8 | 0.00 | 0.00 | 0.00 | 56 | 1009.4 |
| 20260506103552 | 69 | 357 | 2.6 | 7.8 | 0.00 | 0.00 | 0.00 | 56 | 1012.9 |
| 20260506103241 | 69 | 17 | 4.3 | 11.3 | 0.00 | 0.00 | 0.00 | 58 | 1009.6 |
| 20260506103054 | 68 | 33 | 3.5 | 7.8 | 0.00 | 0.00 | 0.00 | 58 | 1012.9 |
| 20260506102741 | 69 | 35 | 5.2 | 9.6 | 0.00 | 0.00 | 0.00 | 58 | 1009.5 |
| 20260506102553 | 70 | 56 | 4.3 | 11.3 | 0.00 | 0.00 | 0.00 | 57 | 1012.9 |
| 20260506102241 | 70 | 35 | 5.2 | 9.6 | 0.00 | 0.00 | 0.00 | 57 | 1009.5 |
| 20260506102052 | 69 | 352 | 6.1 | 7.8 | 0.00 | 0.00 | 0.00 | 57 | 1012.9 |
| 20260506101741 | 69 | 354 | 6.1 | 7.8 | 0.00 | 0.00 | 0.00 | 55 | 1009.3 |
| 20260506101551 | 69 | 61 | 4.3 | 11.3 | 0.00 | 0.00 | 0.00 | 57 | 1012.9 |
| 20260506101241 | 69 | 354 | 6.1 | 7.8 | 0.00 | 0.00 | 0.00 | 55 | 1009.3 |
| 20260506101053 | 69 | 10 | 4.3 | 11.3 | 0.00 | 0.00 | 0.00 | 57 | 1012.9 |
| 20260506100741 | 69 | 60 | 4.3 | 9.6 | 0.00 | 0.00 | 0.00 | 56 | 1009.4 |
| 20260506100553 | 69 | 34 | 3.5 | 7.8 | 0.00 | 0.00 | 0.00 | 56 | 1012.9 |
| 20260506100241 | 69 | 39 | 4.3 | 9.6 | 0.00 | 0.00 | 0.00 | 58 | 1009.4 |
| 20260506100054 | 69 | 229 | 2.6 | 5.2 | 0.00 | 0.00 | 0.00 | 58 | 1012.9 |
| 20260506095741 | 69 | 39 | 7.8 | 9.6 | 0.00 | 0.00 | 0.00 | 58 | 1009.3 |
| 20260506095552 | 69 | 338 | 0.9 | 7.8 | 0.00 | 0.00 | 0.00 | 58 | 1012.9 |
| 20260506095241 | 69 | 29 | 4.3 | 10.4 | 0.00 | 0.00 | 0.00 | 57 | 1009.3 |
| 20260506095052 | 69 | 47 | 4.3 | 9.6 | 0.00 | 0.00 | 0.00 | 56 | 1012.9 |
| 20260506094741 | 69 | 54 | 6.1 | 10.4 | 0.00 | 0.00 | 0.00 | 57 | 1009.4 |
| 20260506094554 | 69 | 52 | 2.6 | 9.6 | 0.00 | 0.00 | 0.00 | 57 | 1012.9 |
| 20260506094241 | 68 | 37 | 7.0 | 7.8 | 0.00 | 0.00 | 0.00 | 59 | 1009.5 |
| 20260506094052 | 69 | 51 | 5.2 | 8.7 | 0.00 | 0.00 | 0.00 | 58 | 1012.5 |
| 20260506093741 | 69 | 348 | 4.3 | 9.6 | 0.00 | 0.00 | 0.00 | 59 | 1009.4 |
| 20260506093554 | 68 | 60 | 6.1 | 7.0 | 0.00 | 0.00 | 0.00 | 59 | 1012.9 |
| 20260506093241 | 68 | 348 | 4.3 | 9.6 | 0.00 | 0.00 | 0.00 | 59 | 1009.3 |
| 20260506093053 | 69 | 32 | 4.3 | 10.4 | 0.00 | 0.00 | 0.00 | 58 | 1012.9 |
| 20260506092741 | 69 | 5 | 5.2 | 7.8 | 0.00 | 0.00 | 0.00 | 56 | 1009.2 |
| 20260506092552 | 69 | 50 | 4.3 | 8.7 | 0.00 | 0.00 | 0.00 | 56 | 1012.9 |
| 20260506092241 | 69 | 86 | 4.3 | 7.0 | 0.00 | 0.00 | 0.00 | 56 | 1009.4 |
| 20260506092053 | 69 | 2 | 2.6 | 6.1 | 0.00 | 0.00 | 0.00 | 56 | 1012.9 |
| 20260506091741 | 69 | 9 | 5.2 | 7.0 | 0.00 | 0.00 | 0.00 | 55 | 1009.4 |
| 20260506091552 | 69 | 45 | 7.8 | 7.8 | 0.00 | 0.00 | 0.00 | 54 | 1012.9 |
| 20260506091240 | 69 | 345 | 6.1 | 7.8 | 0.00 | 0.00 | 0.00 | 54 | 1009.0 |
| 20260506091054 | 70 | 6 | 3.5 | 7.0 | 0.00 | 0.00 | 0.00 | 54 | 1012.5 |
| 20260506090741 | 70 | 332 | 0.9 | 3.5 | 0.00 | 0.00 | 0.00 | 55 | 1009.1 |
| 20260506090552 | 70 | 351 | 3.5 | 4.3 | 0.00 | 0.00 | 0.00 | 54 | 1012.5 |
| 20260506090241 | 70 | 332 | 0.9 | 3.5 | 0.00 | 0.00 | 0.00 | 55 | 1009.2 |
| 20260506090054 | 69 | 308 | 0.9 | 3.5 | 0.00 | 0.00 | 0.00 | 55 | 1012.9 |
| 20260506085741 | 68 | 286 | 1.7 | 7.8 | 0.00 | 0.00 | 0.00 | 56 | 1009.1 |
| 20260506085554 | 69 | 252 | 0.9 | 7.8 | 0.00 | 0.00 | 0.00 | 55 | 1012.5 |
| 20260506085241 | 69 | 299 | 3.5 | 4.3 | 0.00 | 0.00 | 0.00 | 53 | 1009.5 |
| 20260506085050 | 69 | 281 | 0.9 | 3.5 | 0.00 | 0.00 | 0.00 | 54 | 1012.9 |
| 20260506084740 | 69 | 257 | 0.0 | 3.5 | 0.00 | 0.00 | 0.00 | 53 | 1009.4 |
| 20260506084553 | 69 | 278 | 1.7 | 3.5 | 0.00 | 0.00 | 0.00 | 54 | 1012.9 |
| 20260506084241 | 69 | 307 | 2.6 | 3.5 | 0.00 | 0.00 | 0.00 | 53 | 1009.4 |
| 20260506084053 | 69 | 328 | 2.6 | 5.2 | 0.00 | 0.00 | 0.00 | 53 | 1012.9 |
| 20260506083741 | 70 | 320 | 1.7 | 2.6 | 0.00 | 0.00 | 0.00 | 53 | 1009.4 |
| 20260506083553 | 69 | 310 | 0.9 | 6.1 | 0.00 | 0.00 | 0.00 | 53 | 1012.9 |
| 20260506083241 | 70 | 320 | 1.7 | 2.6 | 0.00 | 0.00 | 0.00 | 53 | 1009.3 |
| 20260506083054 | 69 | 88 | 1.7 | 2.6 | 0.00 | 0.00 | 0.00 | 54 | 1012.9 |
| 20260506082741 | 69 | 319 | 2.6 | 2.6 | 0.00 | 0.00 | 0.00 | 54 | 1009.3 |
| 20260506082555 | 68 | 51 | 1.7 | 2.6 | 0.00 | 0.00 | 0.00 | 55 | 1012.9 |
| 20260506082241 | 69 | 0 | 0.9 | 2.6 | 0.00 | 0.00 | 0.00 | 54 | 1009.3 |
| 20260506082052 | 68 | 62 | 1.7 | 3.5 | 0.00 | 0.00 | 0.00 | 55 | 1012.9 |
| 20260506081741 | 68 | 326 | 2.6 | 3.5 | 0.00 | 0.00 | 0.00 | 58 | 1009.2 |
| 20260506081554 | 67 | 65 | 1.7 | 3.5 | 0.00 | 0.00 | 0.00 | 56 | 1012.5 |
| 20260506081241 | 67 | 326 | 2.6 | 3.5 | 0.00 | 0.00 | 0.00 | 58 | 1009.4 |
| 20260506081054 | 67 | 299 | 2.6 | 3.5 | 0.00 | 0.00 | 0.00 | 58 | 1012.9 |
| 20260506080741 | 67 | 63 | 3.5 | 4.3 | 0.00 | 0.00 | 0.00 | 62 | 1009.5 |
| 20260506080552 | 67 | 124 | 1.7 | 3.5 | 0.00 | 0.00 | 0.00 | 60 | 1012.9 |
| 20260506080241 | 67 | 63 | 3.5 | 4.3 | 0.00 | 0.00 | 0.00 | 62 | 1009.1 |
| 20260506073241 | 67 | 92 | 2.6 | 5.2 | 0.00 | 0.00 | 0.00 | 64 | 1009.3 |
| 20260506073055 | 66 | 290 | 0.0 | 1.7 | 0.00 | 0.00 | 0.00 | 67 | 1012.9 |
| 20260506072741 | 66 | 219 | 0.9 | 1.7 | 0.00 | 0.00 | 0.00 | 69 | 1009.5 |
| 20260506072554 | 67 | 79 | 2.6 | 6.1 | 0.00 | 0.00 | 0.00 | 66 | 1012.9 |
| 20260506072241 | 66 | 69 | 0.0 | 1.7 | 0.00 | 0.00 | 0.00 | 69 | 1009.3 |
| 20260506072054 | 64 | 230 | 0.0 | 0.9 | 0.00 | 0.00 | 0.00 | 70 | 1012.9 |
| 20260506071741 | 66 | 122 | 0.9 | 5.2 | 0.00 | 0.00 | 0.00 | 70 | 1009.3 |
| 20260506071553 | 66 | 45 | 0.9 | 4.3 | 0.00 | 0.00 | 0.00 | 68 | 1012.9 |
| 20260506071241 | 65 | 75 | 0.9 | 3.5 | 0.00 | 0.00 | 0.00 | 71 | 1009.2 |
| 20260506071050 | 66 | 224 | 0.0 | 3.5 | 0.00 | 0.00 | 0.00 | 70 | 1012.5 |
| 20260506070741 | 65 | 107 | 3.5 | 7.0 | 0.00 | 0.00 | 0.00 | 71 | 1009.4 |
| 20260506070554 | 66 | 40 | 0.9 | 4.3 | 0.00 | 0.00 | 0.00 | 71 | 1012.5 |
| 20260506070241 | 66 | 165 | 0.9 | 2.6 | 0.00 | 0.00 | 0.00 | 74 | 1009.2 |
| 20260506062241 | 63 | 102 | 0.9 | 5.2 | 0.00 | 0.00 | 0.00 | 82 | 1009.2 |
| 20260506062052 | 63 | 115 | 2.6 | 5.2 | 0.00 | 0.00 | 0.00 | 82 | 1012.5 |
| 20260506061741 | 63 | 68 | 2.6 | 4.3 | 0.00 | 0.00 | 0.00 | 83 | 1009.0 |
| 20260506061552 | 63 | 111 | 3.5 | 4.3 | 0.00 | 0.00 | 0.00 | 82 | 1012.5 |
| 20260506061241 | 63 | 110 | 2.6 | 2.6 | 0.00 | 0.00 | 0.00 | 83 | 1009.3 |
| 20260506061052 | 63 | 79 | 1.7 | 2.6 | 0.00 | 0.00 | 0.00 | 83 | 1012.5 |
| 20260506060741 | 63 | 110 | 2.6 | 2.6 | 0.00 | 0.00 | 0.00 | 83 | 1009.2 |
| 20260506060552 | 63 | 112 | 0.9 | 4.3 | 0.00 | 0.00 | 0.00 | 83 | 1012.9 |
| 20260506060241 | 62 | 102 | 2.6 | 3.5 | 0.00 | 0.00 | 0.00 | 84 | 1009.3 |
| 20260506051241 | 59 | 76 | 1.7 | 2.6 | 0.00 | 0.00 | 0.00 | 91 | 1008.8 |
| 20260506051053 | 59 | 115 | 2.6 | 2.6 | 0.00 | 0.00 | 0.00 | 91 | 1012.2 |
| 20260506050741 | 59 | 96 | 0.9 | 2.6 | 0.00 | 0.00 | 0.00 | 91 | 1008.8 |
| 20260506050550 | 59 | 85 | 0.0 | 1.7 | 0.00 | 0.00 | 0.00 | 91 | 1012.2 |
| 20260506050241 | 59 | 96 | 2.6 | 2.6 | 0.00 | 0.00 | 0.00 | 91 | 1008.8 |
| 20260506045052 | 59 | 174 | 1.7 | 1.7 | 0.00 | 0.00 | 0.00 | 91 | 1012.2 |
| 20260506044741 | 59 | 89 | 1.7 | 1.7 | 0.00 | 0.00 | 0.00 | 91 | 1008.5 |
| 20260506044550 | 59 | 108 | 2.6 | 2.6 | 0.00 | 0.00 | 0.00 | 90 | 1012.2 |
| 20260506044241 | 59 | 100 | 1.7 | 2.6 | 0.00 | 0.00 | 0.00 | 90 | 1008.8 |
| 20260506044052 | 59 | 358 | 0.9 | 2.6 | 0.00 | 0.00 | 0.00 | 90 | 1011.9 |
| 20260506043741 | 59 | 121 | 1.7 | 1.7 | 0.00 | 0.00 | 0.00 | 90 | 1008.5 |
| 20260506043552 | 59 | 125 | 1.7 | 2.6 | 0.00 | 0.00 | 0.00 | 90 | 1012.2 |
| 20260506043240 | 59 | 174 | 0.0 | 1.7 | 0.00 | 0.00 | 0.00 | 90 | 1008.5 |
| 20260506043053 | 59 | 87 | 0.9 | 2.6 | 0.00 | 0.00 | 0.00 | 90 | 1011.9 |
| 20260506042740 | 59 | 86 | 1.7 | 3.5 | 0.00 | 0.00 | 0.00 | 89 | 1008.4 |
| 20260506042550 | 59 | 112 | 1.7 | 2.6 | 0.00 | 0.00 | 0.00 | 90 | 1011.9 |
| 20260506042241 | 59 | 134 | 0.0 | 3.5 | 0.00 | 0.00 | 0.00 | 89 | 1008.4 |
| 20260506042052 | 59 | 81 | 0.9 | 3.5 | 0.00 | 0.00 | 0.00 | 89 | 1011.9 |
| 20260506041741 | 59 | 142 | 2.6 | 2.6 | 0.00 | 0.00 | 0.00 | 89 | 1008.4 |
| 20260506041552 | 59 | 230 | 0.9 | 1.7 | 0.00 | 0.00 | 0.00 | 89 | 1011.9 |
| 20260506041241 | 60 | 142 | 2.6 | 2.6 | 0.00 | 0.00 | 0.00 | 89 | 1008.5 |
| 20260506041052 | 60 | 172 | 1.7 | 3.5 | 0.00 | 0.00 | 0.00 | 89 | 1011.9 |
| 20260506040741 | 60 | 206 | 0.9 | 3.5 | 0.00 | 0.00 | 0.00 | 89 | 1008.5 |
| 20260506040551 | 60 | 206 | 0.0 | 3.5 | 0.00 | 0.00 | 0.00 | 89 | 1011.9 |
| 20260506040241 | 60 | 206 | 0.9 | 3.5 | 0.00 | 0.00 | 0.00 | 89 | 1008.5 |
| 20260506040054 | 60 | 129 | 2.6 | 3.5 | 0.00 | 0.00 | 0.00 | 89 | 1011.9 |
| 20260506035741 | 61 | 122 | 1.7 | 3.5 | 0.00 | 0.00 | 0.00 | 89 | 1008.5 |
| 20260506035551 | 60 | 114 | 2.6 | 2.6 | 0.00 | 0.00 | 0.00 | 89 | 1011.9 |
| 20260506035241 | 61 | 122 | 1.7 | 3.5 | 0.00 | 0.00 | 0.00 | 89 | 1008.4 |
| 20260506035052 | 61 | 112 | 0.9 | 2.6 | 0.00 | 0.00 | 0.00 | 89 | 1011.9 |
| 20260506034740 | 61 | 52 | 2.6 | 4.3 | 0.00 | 0.00 | 0.00 | 88 | 1008.5 |
| 20260506034551 | 61 | 13 | 0.9 | 2.6 | 0.00 | 0.00 | 0.00 | 88 | 1011.9 |
| 20260506034241 | 61 | 52 | 2.6 | 4.3 | 0.00 | 0.00 | 0.00 | 88 | 1008.6 |
| 20260506034054 | 61 | 62 | 3.5 | 4.3 | 0.00 | 0.00 | 0.00 | 88 | 1011.9 |
| 20260506033740 | 61 | 61 | 0.9 | 3.5 | 0.00 | 0.00 | 0.00 | 88 | 1008.3 |
| 20260506033552 | 61 | 82 | 4.3 | 4.3 | 0.00 | 0.00 | 0.00 | 88 | 1011.9 |
| 20260506033241 | 61 | 12 | 2.6 | 3.5 | 0.00 | 0.00 | 0.00 | 88 | 1008.3 |
| 20260506033051 | 61 | 64 | 4.3 | 4.3 | 0.00 | 0.00 | 0.00 | 88 | 1011.9 |
| 20260506032740 | 61 | 60 | 1.7 | 4.3 | 0.00 | 0.00 | 0.00 | 87 | 1008.1 |
| 20260506032558 | 61 | 63 | 2.6 | 3.5 | 0.00 | 0.00 | 0.00 | 87 | 1011.9 |
| 20260506032241 | 61 | 92 | 2.6 | 4.3 | 0.00 | 0.00 | 0.00 | 87 | 1008.3 |
| 20260506032051 | 61 | 56 | 2.6 | 4.3 | 0.00 | 0.00 | 0.00 | 87 | 1011.5 |
| 20260506031741 | 61 | 75 | 3.5 | 6.1 | 0.00 | 0.00 | 0.00 | 87 | 1008.2 |
| 20260506031552 | 61 | 81 | 1.7 | 3.5 | 0.00 | 0.00 | 0.00 | 87 | 1011.2 |
| 20260506031241 | 61 | 75 | 3.5 | 6.1 | 0.00 | 0.00 | 0.00 | 87 | 1007.9 |
| 20260506031051 | 61 | 24 | 1.7 | 5.2 | 0.00 | 0.00 | 0.00 | 87 | 1011.5 |
| 20260506030741 | 61 | 20 | 4.3 | 4.3 | 0.00 | 0.00 | 0.00 | 87 | 1007.9 |
| 20260506030552 | 61 | 25 | 2.6 | 6.1 | 0.00 | 0.00 | 0.00 | 87 | 1011.5 |
| 20260506030241 | 61 | 27 | 4.3 | 4.3 | 0.00 | 0.00 | 0.00 | 87 | 1007.8 |
| 20260506030052 | 61 | 351 | 2.6 | 7.0 | 0.00 | 0.00 | 0.00 | 87 | 1011.2 |
| 20260506025741 | 61 | 6 | 5.2 | 7.8 | 0.00 | 0.00 | 0.00 | 88 | 1007.8 |
| 20260506025550 | 61 | 347 | 2.6 | 5.2 | 0.00 | 0.00 | 0.00 | 88 | 1011.2 |
| 20260506025241 | 61 | 348 | 2.6 | 7.0 | 0.00 | 0.00 | 0.00 | 88 | 1007.9 |
| 20260506025051 | 61 | 14 | 6.1 | 6.1 | 0.00 | 0.00 | 0.00 | 88 | 1011.2 |
| 20260506024741 | 61 | 39 | 2.6 | 4.3 | 0.00 | 0.00 | 0.00 | 89 | 1008.0 |
| 20260506024551 | 61 | 20 | 3.5 | 5.2 | 0.00 | 0.00 | 0.00 | 89 | 1011.5 |
| 20260506024241 | 61 | 32 | 2.6 | 3.5 | 0.00 | 0.00 | 0.00 | 89 | 1007.8 |
| 20260506024053 | 61 | 44 | 1.7 | 3.5 | 0.00 | 0.00 | 0.00 | 89 | 1011.5 |
| 20260506023740 | 61 | 10 | 1.7 | 2.6 | 0.00 | 0.00 | 0.00 | 90 | 1007.9 |
| 20260506023552 | 61 | 356 | 0.9 | 2.6 | 0.00 | 0.00 | 0.00 | 90 | 1011.5 |
| 20260506023241 | 61 | 36 | 2.6 | 4.3 | 0.00 | 0.00 | 0.00 | 90 | 1008.0 |
| 20260506023050 | 61 | 351 | 0.9 | 3.5 | 0.00 | 0.00 | 0.00 | 90 | 1011.5 |
| 20260506022741 | 61 | 34 | 2.6 | 2.6 | 0.00 | 0.00 | 0.00 | 90 | 1008.1 |
| 20260506022552 | 61 | 6 | 4.3 | 4.3 | 0.00 | 0.00 | 0.00 | 90 | 1011.5 |
| 20260506022241 | 61 | 237 | 0.0 | 3.5 | 0.00 | 0.00 | 0.00 | 90 | 1008.1 |
| 20260506022050 | 61 | 37 | 0.0 | 4.3 | 0.00 | 0.00 | 0.00 | 90 | 1011.2 |
| 20260506021740 | 61 | 357 | 2.6 | 4.3 | 0.00 | 0.00 | 0.00 | 90 | 1008.1 |
| 20260506021552 | 61 | 45 | 0.9 | 3.5 | 0.00 | 0.00 | 0.00 | 90 | 1011.5 |
| 20260506021241 | 61 | 357 | 2.6 | 4.3 | 0.00 | 0.00 | 0.00 | 90 | 1007.8 |
| 20260506021051 | 61 | 4 | 4.3 | 4.3 | 0.00 | 0.00 | 0.00 | 90 | 1011.5 |
| 20260506020741 | 61 | 18 | 2.6 | 2.6 | 0.00 | 0.00 | 0.00 | 90 | 1007.9 |
| 20260506020553 | 61 | 5 | 2.6 | 3.5 | 0.00 | 0.00 | 0.00 | 90 | 1011.2 |
| 20260506020241 | 61 | 18 | 2.6 | 2.6 | 0.00 | 0.00 | 0.00 | 90 | 1008.0 |
| 20260506020051 | 61 | 63 | 0.9 | 1.7 | 0.00 | 0.00 | 0.00 | 90 | 1011.2 |
| 20260506015741 | 61 | 67 | 0.9 | 1.7 | 0.00 | 0.00 | 0.00 | 90 | 1008.0 |
| 20260506015552 | 61 | 53 | 0.9 | 2.6 | 0.00 | 0.00 | 0.00 | 90 | 1011.2 |
| 20260506015241 | 61 | 45 | 0.9 | 2.6 | 0.00 | 0.00 | 0.00 | 90 | 1007.9 |
| 20260506015052 | 61 | 16 | 0.9 | 2.6 | 0.00 | 0.00 | 0.00 | 90 | 1011.5 |
| 20260506014741 | 61 | 40 | 1.7 | 4.3 | 0.00 | 0.00 | 0.00 | 90 | 1008.0 |
| 20260506014553 | 62 | 236 | 0.0 | 2.6 | 0.00 | 0.00 | 0.00 | 90 | 1011.5 |
| 20260506014241 | 62 | 2 | 3.5 | 4.3 | 0.00 | 0.00 | 0.00 | 90 | 1007.9 |
| 20260506014051 | 62 | 11 | 2.6 | 4.3 | 0.00 | 0.00 | 0.00 | 90 | 1011.2 |
| 20260506013742 | 62 | 313 | 3.5 | 3.5 | 0.00 | 0.00 | 0.00 | 90 | 1007.7 |
| 20260506013552 | 62 | 6 | 1.7 | 4.3 | 0.00 | 0.00 | 0.00 | 90 | 1011.2 |
| 20260506013241 | 62 | 3 | 4.3 | 4.3 | 0.00 | 0.00 | 0.00 | 90 | 1007.8 |
| 20260506013050 | 62 | 345 | 4.3 | 5.2 | 0.00 | 0.00 | 0.00 | 90 | 1011.2 |
| 20260506012741 | 62 | 335 | 1.7 | 6.1 | 0.00 | 0.00 | 0.00 | 90 | 1007.9 |
| 20260506012553 | 62 | 302 | 1.7 | 5.2 | 0.00 | 0.00 | 0.00 | 90 | 1011.2 |
| 20260506012240 | 62 | 335 | 2.6 | 7.0 | 0.00 | 0.00 | 0.00 | 90 | 1007.8 |
| 20260506012052 | 62 | 329 | 0.9 | 4.3 | 0.00 | 0.00 | 0.00 | 90 | 1011.2 |
| 20260506011741 | 62 | 341 | 1.7 | 2.6 | 0.00 | 0.00 | 0.00 | 90 | 1007.9 |
| 20260506011553 | 62 | 329 | 2.6 | 4.3 | 0.00 | 0.00 | 0.00 | 90 | 1011.2 |
| 20260506011240 | 62 | 313 | 2.6 | 2.6 | 0.00 | 0.00 | 0.00 | 89 | 1007.9 |
| 20260506011052 | 62 | 262 | 0.9 | 3.5 | 0.00 | 0.00 | 0.00 | 90 | 1011.2 |
| 20260506010741 | 62 | 299 | 0.9 | 1.7 | 0.00 | 0.00 | 0.00 | 89 | 1007.8 |
| 20260506010554 | 62 | 274 | 0.0 | 2.6 | 0.00 | 0.00 | 0.00 | 89 | 1011.2 |
| 20260506010241 | 62 | 313 | 1.7 | 2.6 | 0.00 | 0.00 | 0.00 | 89 | 1008.0 |
| 20260506010052 | 62 | 244 | 0.9 | 1.7 | 0.00 | 0.00 | 0.00 | 89 | 1011.5 |
| 20260506005740 | 63 | 312 | 2.6 | 3.5 | 0.00 | 0.00 | 0.00 | 89 | 1008.0 |
| 20260506005555 | 63 | 279 | 2.6 | 3.5 | 0.00 | 0.00 | 0.00 | 89 | 1011.2 |
| 20260506005240 | 63 | 303 | 1.7 | 3.5 | 0.00 | 0.00 | 0.00 | 89 | 1008.0 |
| 20260506005052 | 63 | 358 | 2.6 | 3.5 | 0.00 | 0.00 | 0.00 | 89 | 1011.5 |
| 20260506004741 | 63 | 260 | 0.9 | 3.5 | 0.00 | 0.00 | 0.00 | 89 | 1008.0 |
| 20260506004553 | 63 | 316 | 1.7 | 2.6 | 0.00 | 0.00 | 0.00 | 89 | 1011.5 |
| 20260506004241 | 63 | 260 | 0.9 | 3.5 | 0.00 | 0.00 | 0.00 | 89 | 1008.3 |
| 20260506004051 | 63 | 326 | 1.7 | 3.5 | 0.00 | 0.00 | 0.00 | 89 | 1011.9 |
| 20260506003741 | 63 | 333 | 3.5 | 4.3 | 0.00 | 0.00 | 0.00 | 89 | 1008.2 |
| 20260506003553 | 63 | 354 | 3.5 | 5.2 | 0.00 | 0.00 | 0.00 | 89 | 1011.9 |
| 20260506003241 | 63 | 346 | 1.7 | 5.2 | 0.00 | 0.00 | 0.00 | 89 | 1008.3 |
| 20260506003052 | 63 | 321 | 3.5 | 4.3 | 0.00 | 0.00 | 0.00 | 89 | 1011.5 |
| 20260506002741 | 63 | 289 | 2.6 | 4.3 | 0.00 | 0.00 | 0.00 | 89 | 1008.3 |
| 20260506002551 | 63 | 304 | 2.6 | 5.2 | 0.00 | 0.00 | 0.00 | 89 | 1011.5 |
| 20260506002241 | 63 | 311 | 1.7 | 6.1 | 0.00 | 0.00 | 0.00 | 88 | 1008.4 |
| 20260506002052 | 63 | 322 | 3.5 | 5.2 | 0.00 | 0.00 | 0.00 | 89 | 1011.9 |
| 20260506001740 | 63 | 350 | 1.7 | 4.3 | 0.00 | 0.00 | 0.00 | 88 | 1008.4 |
| 20260506001553 | 64 | 299 | 2.6 | 5.2 | 0.00 | 0.00 | 0.00 | 88 | 1011.9 |
| 20260506001241 | 64 | 331 | 1.7 | 4.3 | 0.00 | 0.00 | 0.00 | 88 | 1008.7 |
| 20260506001050 | 64 | 327 | 2.6 | 6.1 | 0.00 | 0.00 | 0.00 | 88 | 1011.9 |
| 20260506000741 | 64 | 329 | 2.6 | 4.3 | 0.00 | 0.00 | 0.00 | 88 | 1008.7 |
| 20260506000552 | 64 | 351 | 2.6 | 3.5 | 0.00 | 0.00 | 0.00 | 88 | 1011.9 |
| 20260506000241 | 64 | 303 | 3.5 | 4.3 | 0.00 | 0.00 | 0.00 | 88 | 1008.5 |
| 20260506000052 | 64 | 290 | 2.6 | 3.5 | 0.00 | 0.00 | 0.00 | 88 | 1012.2 |
| 20260505235741 | 64 | 268 | 3.5 | 5.2 | 0.00 | 0.00 | 0.00 | 87 | 1008.5 |
| 20260505235552 | 64 | 281 | 3.5 | 5.2 | 0.00 | 0.00 | 0.00 | 87 | 1011.9 |
| 20260505235241 | 64 | 268 | 4.3 | 5.2 | 0.00 | 0.00 | 0.00 | 87 | 1008.5 |
| 20260505235052 | 64 | 289 | 2.6 | 4.3 | 0.00 | 0.00 | 0.00 | 87 | 1011.9 |
| 20260505234741 | 64 | 277 | 2.6 | 4.3 | 0.00 | 0.00 | 0.00 | 87 | 1008.3 |
| 20260505234550 | 64 | 262 | 2.6 | 4.3 | 0.00 | 0.00 | 0.00 | 87 | 1011.9 |
| 20260505234241 | 64 | 279 | 2.6 | 3.5 | 0.00 | 0.00 | 0.00 | 86 | 1008.5 |
| 20260505234051 | 64 | 300 | 3.5 | 4.3 | 0.00 | 0.00 | 0.00 | 86 | 1011.9 |
| 20260505233741 | 64 | 320 | 2.6 | 4.3 | 0.00 | 0.00 | 0.00 | 86 | 1008.5 |
| 20260505233556 | 64 | 281 | 2.6 | 3.5 | 0.00 | 0.00 | 0.00 | 86 | 1011.9 |
| 20260505233241 | 64 | 320 | 2.6 | 4.3 | 0.00 | 0.00 | 0.00 | 86 | 1008.6 |
| 20260505233051 | 64 | 275 | 3.5 | 3.5 | 0.00 | 0.00 | 0.00 | 86 | 1011.9 |
| 20260505232741 | 64 | 298 | 2.6 | 3.5 | 0.00 | 0.00 | 0.00 | 86 | 1008.6 |
| 20260505232552 | 64 | 313 | 2.6 | 2.6 | 0.00 | 0.00 | 0.00 | 86 | 1011.9 |
| 20260505232241 | 64 | 320 | 1.7 | 3.5 | 0.00 | 0.00 | 0.00 | 86 | 1008.7 |
| 20260505232057 | 64 | 315 | 1.7 | 4.3 | 0.00 | 0.00 | 0.00 | 86 | 1012.2 |
| 20260505231741 | 64 | 320 | 1.7 | 3.5 | 0.00 | 0.00 | 0.00 | 86 | 1008.6 |
| 20260505231555 | 64 | 302 | 2.6 | 4.3 | 0.00 | 0.00 | 0.00 | 86 | 1012.2 |
| 20260505231241 | 64 | 305 | 2.6 | 4.3 | 0.00 | 0.00 | 0.00 | 86 | 1008.7 |
| 20260505231049 | 64 | 277 | 2.6 | 4.3 | 0.00 | 0.00 | 0.00 | 86 | 1011.9 |
| 20260505230741 | 64 | 293 | 2.6 | 2.6 | 0.00 | 0.00 | 0.00 | 86 | 1008.6 |
| 20260505230553 | 64 | 306 | 3.5 | 4.3 | 0.00 | 0.00 | 0.00 | 86 | 1012.2 |
| 20260505230240 | 64 | 293 | 0.9 | 2.6 | 0.00 | 0.00 | 0.00 | 86 | 1008.6 |
| 20260505230052 | 64 | 81 | 0.9 | 3.5 | 0.00 | 0.00 | 0.00 | 86 | 1012.2 |
| 20260505225741 | 64 | 306 | 1.7 | 2.6 | 0.00 | 0.00 | 0.00 | 86 | 1008.7 |
| 20260505225241 | 64 | 269 | 1.7 | 3.5 | 0.00 | 0.00 | 0.00 | 86 | 1008.7 |
| 20260505225131 | 64 | 255 | 0.9 | 3.5 | 0.00 | 0.00 | 0.00 | 86 | 1012.2 |
| 20260505224741 | 64 | 269 | 1.7 | 3.5 | 0.00 | 0.00 | 0.00 | 86 | 1008.8 |
| 20260505224550 | 64 | 291 | 2.6 | 4.3 | 0.00 | 0.00 | 0.00 | 86 | 1012.2 |
| 20260505224241 | 64 | 262 | 1.7 | 3.5 | 0.00 | 0.00 | 0.00 | 86 | 1008.8 |
| 20260505224051 | 64 | 314 | 4.3 | 4.3 | 0.00 | 0.00 | 0.00 | 86 | 1012.2 |
| 20260505223741 | 64 | 262 | 1.7 | 3.5 | 0.00 | 0.00 | 0.00 | 86 | 1008.7 |
| 20260505223554 | 64 | 262 | 1.7 | 4.3 | 0.00 | 0.00 | 0.00 | 86 | 1012.2 |
| 20260505223241 | 64 | 339 | 1.7 | 3.5 | 0.00 | 0.00 | 0.00 | 86 | 1008.8 |
| 20260505223052 | 64 | 290 | 1.7 | 3.5 | 0.00 | 0.00 | 0.00 | 86 | 1012.2 |
| 20260505222741 | 64 | 276 | 2.6 | 4.3 | 0.00 | 0.00 | 0.00 | 86 | 1008.9 |
| 20260505222556 | 64 | 296 | 2.6 | 3.5 | 0.00 | 0.00 | 0.00 | 86 | 1012.2 |
| 20260505222241 | 64 | 277 | 1.7 | 2.6 | 0.00 | 0.00 | 0.00 | 86 | 1008.9 |
| 20260505222052 | 64 | 314 | 1.7 | 3.5 | 0.00 | 0.00 | 0.00 | 86 | 1012.2 |
| 20260505221741 | 64 | 30 | 1.7 | 6.1 | 0.00 | 0.00 | 0.00 | 86 | 1008.9 |
| 20260505221550 | 64 | 317 | 0.9 | 3.5 | 0.00 | 0.00 | 0.00 | 86 | 1012.2 |
| 20260505221241 | 64 | 267 | 1.7 | 1.7 | 0.00 | 0.00 | 0.00 | 86 | 1008.8 |
| 20260505221051 | 64 | 317 | 2.6 | 4.3 | 0.00 | 0.00 | 0.00 | 86 | 1012.2 |
| 20260505220741 | 64 | 290 | 0.9 | 2.6 | 0.00 | 0.00 | 0.00 | 86 | 1008.9 |
| 20260505220554 | 64 | 235 | 0.0 | 0.9 | 0.00 | 0.00 | 0.00 | 86 | 1012.2 |
| 20260505220241 | 64 | 275 | 2.6 | 3.5 | 0.00 | 0.00 | 0.00 | 86 | 1009.1 |
| 20260505220050 | 65 | 260 | 1.7 | 2.6 | 0.00 | 0.00 | 0.00 | 86 | 1012.5 |
| 20260505215741 | 64 | 287 | 1.7 | 4.3 | 0.00 | 0.00 | 0.00 | 87 | 1008.9 |
| 20260505215555 | 64 | 253 | 1.7 | 3.5 | 0.00 | 0.00 | 0.00 | 86 | 1012.2 |
| 20260505215241 | 65 | 287 | 1.7 | 4.3 | 0.00 | 0.00 | 0.00 | 87 | 1009.1 |
| 20260505215052 | 65 | 289 | 4.3 | 4.3 | 0.00 | 0.00 | 0.00 | 87 | 1012.2 |
| 20260505214741 | 65 | 305 | 0.9 | 1.7 | 0.00 | 0.00 | 0.00 | 87 | 1008.9 |
| 20260505214552 | 65 | 282 | 2.6 | 2.6 | 0.00 | 0.00 | 0.00 | 87 | 1012.5 |
| 20260505214241 | 65 | 289 | 0.9 | 1.7 | 0.00 | 0.00 | 0.00 | 87 | 1008.9 |
| 20260505214051 | 65 | 230 | 0.0 | 1.7 | 0.00 | 0.00 | 0.00 | 87 | 1012.2 |
| 20260505213740 | 65 | 290 | 1.7 | 1.7 | 0.00 | 0.00 | 0.00 | 87 | 1008.8 |
| 20260505213552 | 65 | 275 | 0.0 | 2.6 | 0.00 | 0.00 | 0.00 | 87 | 1012.2 |
| 20260505213241 | 65 | 278 | 1.7 | 2.6 | 0.00 | 0.00 | 0.00 | 88 | 1009.2 |
| 20260505213052 | 65 | 271 | 1.7 | 2.6 | 0.00 | 0.00 | 0.00 | 87 | 1012.2 |
| 20260505212740 | 65 | 282 | 2.6 | 4.3 | 0.00 | 0.00 | 0.00 | 88 | 1009.0 |
| 20260505212553 | 65 | 279 | 1.7 | 3.5 | 0.00 | 0.00 | 0.00 | 88 | 1012.2 |
| 20260505212241 | 65 | 282 | 2.6 | 3.5 | 0.00 | 0.00 | 0.00 | 88 | 1009.0 |
| 20260505212052 | 65 | 288 | 3.5 | 3.5 | 0.00 | 0.00 | 0.00 | 88 | 1012.2 |
| 20260505211741 | 65 | 351 | 0.9 | 2.6 | 0.00 | 0.00 | 0.00 | 88 | 1008.9 |
| 20260505211551 | 64 | 247 | 1.7 | 1.7 | 0.00 | 0.00 | 0.00 | 88 | 1012.2 |
| 20260505211241 | 65 | 351 | 1.7 | 2.6 | 0.00 | 0.00 | 0.00 | 88 | 1008.6 |
| 20260505211054 | 65 | 261 | 2.6 | 3.5 | 0.00 | 0.00 | 0.00 | 88 | 1012.2 |
| 20260505210741 | 65 | 278 | 2.6 | 2.6 | 0.00 | 0.00 | 0.00 | 88 | 1008.8 |
| 20260505210552 | 65 | 273 | 3.5 | 3.5 | 0.00 | 0.00 | 0.00 | 88 | 1011.9 |
| 20260505210240 | 65 | 278 | 2.6 | 2.6 | 0.00 | 0.00 | 0.00 | 88 | 1008.4 |
| 20260505210055 | 65 | 244 | 2.6 | 2.6 | 0.00 | 0.00 | 0.00 | 88 | 1011.9 |
| 20260505205741 | 65 | 265 | 3.5 | 5.2 | 0.00 | 0.00 | 0.00 | 88 | 1008.5 |
| 20260505205552 | 65 | 262 | 2.6 | 3.5 | 0.00 | 0.00 | 0.00 | 88 | 1012.2 |
| 20260505205240 | 65 | 280 | 4.3 | 4.3 | 0.00 | 0.00 | 0.00 | 87 | 1008.5 |
| 20260505205052 | 65 | 248 | 2.6 | 4.3 | 0.00 | 0.00 | 0.00 | 87 | 1011.9 |
| 20260505204740 | 65 | 266 | 3.5 | 5.2 | 0.00 | 0.00 | 0.00 | 87 | 1008.5 |
| 20260505204553 | 65 | 265 | 1.7 | 3.5 | 0.00 | 0.00 | 0.00 | 87 | 1011.9 |
| 20260505204240 | 65 | 277 | 2.6 | 3.5 | 0.00 | 0.00 | 0.00 | 87 | 1008.4 |
| 20260505204055 | 65 | 274 | 3.5 | 6.1 | 0.00 | 0.00 | 0.00 | 87 | 1011.9 |
| 20260505203740 | 65 | 220 | 5.2 | 7.0 | 0.00 | 0.00 | 0.00 | 87 | 1008.4 |
| 20260505203552 | 65 | 252 | 1.7 | 5.2 | 0.00 | 0.00 | 0.00 | 87 | 1011.5 |
| 20260505203241 | 65 | 203 | 4.3 | 5.2 | 0.00 | 0.00 | 0.00 | 87 | 1008.3 |
| 20260505203052 | 65 | 234 | 1.7 | 4.3 | 0.00 | 0.00 | 0.00 | 87 | 1011.5 |
| 20260505202741 | 65 | 203 | 3.5 | 5.2 | 0.00 | 0.00 | 0.00 | 87 | 1008.2 |
| 20260505202554 | 65 | 278 | 3.5 | 6.1 | 0.00 | 0.00 | 0.00 | 87 | 1011.9 |
| 20260505202240 | 65 | 246 | 3.5 | 5.2 | 0.00 | 0.00 | 0.00 | 87 | 1008.2 |
| 20260505202053 | 65 | 231 | 3.5 | 6.1 | 0.00 | 0.00 | 0.00 | 87 | 1011.5 |
| 20260505201741 | 65 | 223 | 4.3 | 6.1 | 0.00 | 0.00 | 0.00 | 86 | 1008.2 |
| 20260505201553 | 65 | 237 | 1.7 | 5.2 | 0.00 | 0.00 | 0.00 | 87 | 1011.5 |
| 20260505201241 | 66 | 213 | 4.3 | 5.2 | 0.00 | 0.00 | 0.00 | 86 | 1008.2 |
| 20260505201053 | 65 | 262 | 3.5 | 7.0 | 0.00 | 0.00 | 0.00 | 86 | 1011.5 |
| 20260505200741 | 66 | 241 | 2.6 | 5.2 | 0.00 | 0.00 | 0.00 | 86 | 1008.1 |
| 20260505200556 | 66 | 268 | 2.6 | 5.2 | 0.00 | 0.00 | 0.00 | 86 | 1011.5 |
| 20260505200241 | 66 | 269 | 6.1 | 7.8 | 0.00 | 0.00 | 0.00 | 86 | 1008.2 |
| 20260505200052 | 66 | 260 | 5.2 | 6.1 | 0.00 | 0.00 | 0.00 | 86 | 1011.9 |
| 20260505195741 | 66 | 264 | 5.2 | 8.7 | 0.00 | 0.00 | 0.00 | 86 | 1008.2 |
| 20260505195552 | 66 | 223 | 3.5 | 8.7 | 0.00 | 0.00 | 0.00 | 86 | 1011.5 |
| 20260505195241 | 66 | 264 | 5.2 | 8.7 | 0.00 | 0.00 | 0.00 | 86 | 1008.1 |
| 20260505195053 | 66 | 232 | 5.2 | 7.8 | 0.00 | 0.00 | 0.00 | 87 | 1011.5 |
| 20260505194741 | 66 | 217 | 5.2 | 7.8 | 0.00 | 0.00 | 0.00 | 86 | 1008.1 |
| 20260505194553 | 66 | 229 | 4.3 | 7.8 | 0.00 | 0.00 | 0.00 | 86 | 1011.5 |
| 20260505194240 | 66 | 227 | 6.1 | 8.7 | 0.00 | 0.00 | 0.00 | 86 | 1007.8 |
| 20260505194052 | 66 | 243 | 5.2 | 8.7 | 0.00 | 0.00 | 0.00 | 86 | 1011.2 |
| 20260505193741 | 66 | 208 | 6.1 | 8.7 | 0.00 | 0.00 | 0.00 | 86 | 1007.7 |
| 20260505193552 | 66 | 215 | 5.2 | 11.3 | 0.00 | 0.00 | 0.00 | 86 | 1011.2 |
| 20260505193241 | 66 | 208 | 3.5 | 8.7 | 0.00 | 0.00 | 0.00 | 86 | 1008.0 |
| 20260505193052 | 66 | 211 | 1.7 | 8.7 | 0.00 | 0.00 | 0.00 | 86 | 1011.2 |
| 20260505192741 | 66 | 278 | 3.5 | 9.6 | 0.00 | 0.00 | 0.00 | 86 | 1007.8 |
| 20260505192553 | 66 | 225 | 6.1 | 10.4 | 0.00 | 0.00 | 0.00 | 86 | 1011.2 |
| 20260505192240 | 66 | 216 | 5.2 | 8.7 | 0.00 | 0.00 | 0.00 | 86 | 1007.8 |
| 20260505192051 | 66 | 248 | 7.0 | 11.3 | 0.00 | 0.00 | 0.00 | 86 | 1011.2 |
| 20260505191740 | 66 | 222 | 3.5 | 9.6 | 0.00 | 0.00 | 0.00 | 86 | 1007.8 |
| 20260505191552 | 66 | 274 | 5.2 | 10.4 | 0.00 | 0.00 | 0.00 | 86 | 1011.2 |
| 20260505191241 | 66 | 230 | 6.1 | 9.6 | 0.00 | 0.00 | 0.00 | 85 | 1007.6 |
| 20260505191054 | 66 | 219 | 4.3 | 11.3 | 0.00 | 0.00 | 0.00 | 85 | 1011.2 |
| 20260505190741 | 66 | 230 | 6.1 | 9.6 | 0.00 | 0.00 | 0.00 | 85 | 1007.6 |
| 20260505190552 | 66 | 278 | 1.7 | 10.4 | 0.00 | 0.00 | 0.00 | 85 | 1010.8 |
| 20260505190241 | 66 | 226 | 5.2 | 7.8 | 0.00 | 0.00 | 0.00 | 85 | 1007.4 |
| 20260505190052 | 66 | 217 | 7.8 | 11.3 | 0.00 | 0.00 | 0.00 | 85 | 1010.8 |
| 20260505185741 | 66 | 217 | 7.8 | 7.8 | 0.00 | 0.00 | 0.00 | 85 | 1007.7 |
| 20260505185551 | 66 | 237 | 4.3 | 7.8 | 0.00 | 0.00 | 0.00 | 85 | 1010.8 |